PAA107 EDDF-KBOS

Flight info

Callsign PAA107
Flight time 7h 28m
Altitude 32000
Route OBOKA3M/25C OBOKA Z28 DIBIR DCT BUDIP DCT RAVLO Y70 OTBED L60 ENCOD/N0473F340 L60 PENIL M144 BAGSO DCT ADBUS DCT DOGAL/M083F350 NATC ELSIR/N0477F360 DCT TUSKY DCT EURRO OOSHN5
Aircraft L101/H-SDFGHIRWXY/S

Departure

Time 2026-05-07 13:35
Airport Frankfurt Main Airport (EDDF)

Arrival

Time 2026-05-07 21:03
Airport Boston Logan International Airport (KBOS)
Time Latitude Longitude Altitude Speed Heading
2026-05-07 13:14 50.04652 8.56818 365 ft 0 kts 294°
2026-05-07 13:25 50.04648 8.56830 363 ft 3 kts 294°
2026-05-07 13:25 50.04641 8.56856 365 ft 3 kts 295°
2026-05-07 13:25 50.04638 8.56884 360 ft 3 kts 240°
2026-05-07 13:25 50.04648 8.56901 366 ft 0 kts 202°
2026-05-07 13:29 50.04643 8.56900 360 ft 1 kts 188°
2026-05-07 13:29 50.04622 8.56895 361 ft 5 kts 188°
2026-05-07 13:30 50.04576 8.56885 357 ft 9 kts 188°
2026-05-07 13:30 50.04502 8.56868 355 ft 12 kts 188°
2026-05-07 13:30 50.04414 8.56848 360 ft 13 kts 188°
2026-05-07 13:30 50.04329 8.56834 362 ft 11 kts 172°
2026-05-07 13:31 50.04288 8.56878 361 ft 6 kts 123°
2026-05-07 13:31 50.04283 8.56923 362 ft 5 kts 84°
2026-05-07 13:31 50.04295 8.56980 361 ft 5 kts 68°
2026-05-07 13:31 50.04313 8.57057 359 ft 11 kts 70°
2026-05-07 13:32 50.04345 8.57191 353 ft 15 kts 70°
2026-05-07 13:32 50.04387 8.57367 358 ft 20 kts 70°
2026-05-07 13:32 50.04439 8.57585 352 ft 22 kts 69°
2026-05-07 13:32 50.04496 8.57811 349 ft 24 kts 69°
2026-05-07 13:33 50.04553 8.58054 350 ft 24 kts 70°
2026-05-07 13:33 50.04612 8.58305 351 ft 25 kts 70°
2026-05-07 13:33 50.04633 8.58541 329 ft 21 kts 136°
2026-05-07 13:33 50.04507 8.58594 332 ft 17 kts 214°
2026-05-07 13:34 50.04459 8.58475 331 ft 12 kts 247°
2026-05-07 13:34 50.04163 8.57238 361 ft 131 kts 250°
2026-05-07 13:34 50.03780 8.55589 502 ft 184 kts 249°
2026-05-07 13:35 50.03289 8.53552 1015 ft 216 kts 249°
2026-05-07 13:35 50.02678 8.51284 1490 ft 229 kts 244°
2026-05-07 13:35 50.01761 8.49371 1942 ft 228 kts 225°
2026-05-07 13:35 50.00479 8.47870 2044 ft 231 kts 211°
2026-05-07 13:36 49.99034 8.46794 2059 ft 230 kts 201°
2026-05-07 13:36 49.97503 8.46101 2323 ft 231 kts 195°
2026-05-07 13:36 49.95928 8.45533 2555 ft 233 kts 194°
2026-05-07 13:36 49.94321 8.44979 2468 ft 237 kts 191°
2026-05-07 13:37 49.92656 8.44401 2694 ft 255 kts 206°
2026-05-07 13:37 49.91346 8.42617 3863 ft 262 kts 239°
2026-05-07 13:37 49.90595 8.39918 4712 ft 286 kts 258°
2026-05-07 13:37 49.90390 8.36768 5845 ft 291 kts 271°
2026-05-07 13:38 49.90457 8.33787 7857 ft 261 kts 274°
2026-05-07 13:38 49.90550 8.31081 9655 ft 251 kts 275°
2026-05-07 13:38 49.90846 8.28286 10308 ft 277 kts 288°
2026-05-07 13:38 49.91673 8.25498 11100 ft 292 kts 303°
2026-05-07 13:39 49.92934 8.22965 11925 ft 308 kts 312°
2026-05-07 13:39 49.94514 8.20534 12113 ft 334 kts 316°
2026-05-07 13:39 49.95680 8.18791 12033 ft 355 kts 314°
2026-05-07 13:39 49.97761 8.15048 11898 ft 330 kts 304°
2026-05-07 13:40 49.98560 8.13109 12096 ft 308 kts 301°
2026-05-07 13:40 49.99650 8.10397 12527 ft 289 kts 304°
2026-05-07 13:40 50.00871 8.07883 12865 ft 293 kts 310°
2026-05-07 13:40 50.02251 8.05596 13132 ft 293 kts 315°
2026-05-07 13:41 50.03747 8.03412 13269 ft 294 kts 317°
2026-05-07 13:41 50.05285 8.01271 13417 ft 308 kts 318°
2026-05-07 13:41 50.06966 7.98949 13556 ft 335 kts 318°
2026-05-07 13:41 50.08763 7.96478 13760 ft 357 kts 318°
2026-05-07 13:42 50.10662 7.93894 14353 ft 366 kts 318°
2026-05-07 13:42 50.12622 7.91246 14974 ft 375 kts 319°
2026-05-07 13:42 50.14602 7.88580 15616 ft 384 kts 319°
2026-05-07 13:42 50.16657 7.85812 16225 ft 394 kts 319°
2026-05-07 13:43 50.18761 7.82972 16901 ft 403 kts 319°
2026-05-07 13:43 50.20904 7.80079 17559 ft 412 kts 319°
2026-05-07 13:43 50.23080 7.77151 18240 ft 421 kts 319°
2026-05-07 13:43 50.25482 7.74406 18827 ft 431 kts 328°
2026-05-07 13:44 50.28177 7.72244 19435 ft 440 kts 334°
2026-05-07 13:44 50.31007 7.70367 20063 ft 448 kts 336°
2026-05-07 13:44 50.33896 7.68418 20704 ft 455 kts 335°
2026-05-07 13:44 50.36794 7.66344 21351 ft 461 kts 334°
2026-05-07 13:45 50.39732 7.64229 22002 ft 466 kts 334°
2026-05-07 13:45 50.42698 7.62115 22679 ft 471 kts 334°
2026-05-07 13:45 50.45712 7.59992 23371 ft 475 kts 335°
2026-05-07 13:45 50.48710 7.57904 23994 ft 478 kts 335°
2026-05-07 13:46 50.51782 7.55776 24596 ft 481 kts 335°
2026-05-07 13:46 50.54834 7.53687 25202 ft 483 kts 335°
2026-05-07 13:46 50.57866 7.51370 25820 ft 484 kts 329°
2026-05-07 13:46 50.60704 7.48490 26470 ft 483 kts 323°
2026-05-07 13:47 50.63432 7.45333 27134 ft 483 kts 322°
2026-05-07 13:47 50.66165 7.42266 27802 ft 484 kts 325°
2026-05-07 13:47 50.68945 7.39389 28488 ft 483 kts 326°
2026-05-07 13:47 50.71777 7.36494 29190 ft 481 kts 322°
2026-05-07 13:48 50.74238 7.32959 29849 ft 478 kts 309°
2026-05-07 13:48 50.76211 7.28735 30545 ft 474 kts 303°
2026-05-07 13:48 50.78088 7.24462 31193 ft 471 kts 306°
2026-05-07 13:48 50.80041 7.20381 31779 ft 471 kts 308°
2026-05-07 13:49 50.82076 7.16279 31968 ft 471 kts 307°
2026-05-07 13:49 50.85969 7.08000 31977 ft 468 kts 305°
2026-05-07 13:50 50.89714 6.99598 31989 ft 468 kts 304°
2026-05-07 13:50 50.93465 6.91122 31991 ft 468 kts 304°
2026-05-07 13:51 50.97181 6.82703 31992 ft 468 kts 304°
2026-05-07 13:51 51.00914 6.74239 31992 ft 468 kts 304°
2026-05-07 13:52 51.04660 6.65718 31990 ft 468 kts 304°
2026-05-07 13:52 51.08364 6.57264 31988 ft 468 kts 304°
2026-05-07 13:53 51.12076 6.48700 31994 ft 468 kts 303°
2026-05-07 13:53 51.15744 6.40193 31999 ft 468 kts 303°
2026-05-07 13:54 51.19460 6.31612 31994 ft 469 kts 303°
2026-05-07 13:54 51.23150 6.23072 31992 ft 469 kts 303°
2026-05-07 13:55 51.26855 6.14469 31993 ft 469 kts 303°
2026-05-07 13:55 51.30450 6.05781 31987 ft 468 kts 301°
2026-05-07 13:56 51.33985 5.97064 31986 ft 469 kts 302°
2026-05-07 13:56 51.37656 5.88474 31972 ft 469 kts 308°
2026-05-07 13:57 51.42144 5.80837 32002 ft 470 kts 312°
2026-05-07 13:57 51.46587 5.73139 32012 ft 471 kts 310°
2026-05-07 13:58 51.51040 5.65397 32019 ft 472 kts 311°
2026-05-07 13:58 51.55543 5.57773 32012 ft 472 kts 312°
2026-05-07 13:59 51.60060 5.50096 32009 ft 472 kts 311°
2026-05-07 13:59 51.64556 5.42433 32013 ft 472 kts 311°
2026-05-07 14:00 51.69074 5.34722 32014 ft 472 kts 311°
2026-05-07 14:00 51.73551 5.27057 32011 ft 473 kts 311°
2026-05-07 14:01 51.78073 5.19289 32021 ft 473 kts 311°
2026-05-07 14:01 51.82552 5.11573 32013 ft 473 kts 311°
2026-05-07 14:02 51.87044 5.03811 32014 ft 473 kts 311°
2026-05-07 14:02 51.91548 4.96004 32012 ft 473 kts 311°
2026-05-07 14:03 51.96020 4.88226 32017 ft 473 kts 311°
2026-05-07 14:03 52.00500 4.80412 32014 ft 475 kts 311°
2026-05-07 14:04 52.04995 4.72548 32014 ft 475 kts 311°
2026-05-07 14:04 52.09494 4.64649 32012 ft 475 kts 311°
2026-05-07 14:05 52.13965 4.56775 32012 ft 475 kts 311°
2026-05-07 14:05 52.18459 4.48839 32019 ft 475 kts 311°
2026-05-07 14:06 52.22925 4.40925 32028 ft 477 kts 311°
2026-05-07 14:06 52.27401 4.32969 32031 ft 478 kts 312°
2026-05-07 14:07 52.31909 4.24929 32036 ft 479 kts 311°
2026-05-07 14:07 52.36405 4.16887 32037 ft 479 kts 311°
2026-05-07 14:08 52.40904 4.08808 32042 ft 479 kts 311°
2026-05-07 14:08 52.45382 4.00755 32042 ft 479 kts 311°
2026-05-07 14:09 52.49846 3.92665 32056 ft 483 kts 313°
2026-05-07 14:09 52.52110 3.88570 32226 ft 482 kts 313°
2026-05-07 14:09 52.54383 3.84456 32433 ft 490 kts 313°
2026-05-07 14:09 52.56696 3.80263 32608 ft 497 kts 313°
2026-05-07 14:10 52.58980 3.76112 32788 ft 488 kts 313°
2026-05-07 14:10 52.61218 3.72032 33001 ft 478 kts 313°
2026-05-07 14:10 52.63456 3.67941 33204 ft 476 kts 312°
2026-05-07 14:10 52.65672 3.63881 33389 ft 478 kts 312°
2026-05-07 14:11 52.67880 3.59830 33595 ft 481 kts 313°
2026-05-07 14:11 52.70123 3.55711 33780 ft 483 kts 312°
2026-05-07 14:11 52.72378 3.51565 33986 ft 483 kts 313°
2026-05-07 14:11 52.74601 3.47469 34160 ft 486 kts 313°
2026-05-07 14:12 52.76865 3.43295 34336 ft 488 kts 313°
2026-05-07 14:12 52.79143 3.39092 34477 ft 490 kts 313°
2026-05-07 14:12 52.81420 3.34881 34658 ft 492 kts 312°
2026-05-07 14:12 52.83709 3.30641 34807 ft 493 kts 312°
2026-05-07 14:13 52.85970 3.26444 34959 ft 495 kts 312°
2026-05-07 14:13 52.90214 3.17450 34958 ft 496 kts 295°
2026-05-07 14:13 52.91351 3.12079 34988 ft 493 kts 283°
2026-05-07 14:14 52.92078 3.06562 35047 ft 496 kts 283°
2026-05-07 14:14 52.93893 2.95462 35064 ft 498 kts 286°
2026-05-07 14:15 52.95539 2.85138 35063 ft 499 kts 283°
2026-05-07 14:15 52.97053 2.73913 35049 ft 499 kts 282°
2026-05-07 14:16 52.98545 2.62637 35063 ft 500 kts 282°
2026-05-07 14:16 53.00021 2.51352 35060 ft 501 kts 282°
2026-05-07 14:17 53.01480 2.40008 35059 ft 502 kts 282°
2026-05-07 14:17 53.02925 2.28670 35062 ft 502 kts 282°
2026-05-07 14:18 53.04360 2.17317 35054 ft 502 kts 281°
2026-05-07 14:18 53.05774 2.05966 35052 ft 502 kts 281°
2026-05-07 14:19 53.07112 1.94559 35051 ft 502 kts 280°
2026-05-07 14:19 53.08460 1.83170 35039 ft 502 kts 281°
2026-05-07 14:20 53.09839 1.71830 35055 ft 502 kts 281°
2026-05-07 14:20 53.11215 1.60431 35053 ft 502 kts 281°
2026-05-07 14:21 53.12583 1.49024 35034 ft 502 kts 281°
2026-05-07 14:21 53.13943 1.37594 35036 ft 502 kts 280°
2026-05-07 14:22 53.15290 1.26175 35053 ft 502 kts 280°
2026-05-07 14:22 53.16628 1.14738 35035 ft 503 kts 280°
2026-05-07 14:23 53.17954 1.03300 35036 ft 503 kts 280°
2026-05-07 14:23 53.19273 0.91836 35035 ft 503 kts 280°
2026-05-07 14:24 53.20569 0.80456 35042 ft 503 kts 280°
2026-05-07 14:24 53.21864 0.68988 35022 ft 503 kts 279°
2026-05-07 14:25 53.23131 0.57496 35022 ft 503 kts 279°
2026-05-07 14:25 53.24271 0.45963 35026 ft 503 kts 277°
2026-05-07 14:26 53.25352 0.34404 35018 ft 503 kts 279°
2026-05-07 14:26 53.26666 0.23026 35020 ft 503 kts 280°
2026-05-07 14:27 53.27730 0.13405 35016 ft 502 kts 279°
2026-05-07 14:27 53.29145 0.00040 35012 ft 502 kts 279°
2026-05-07 14:28 53.30333 -0.11470 35020 ft 502 kts 278°
2026-05-07 14:28 53.31324 -0.21075 35018 ft 503 kts 278°
2026-05-07 14:29 53.32517 -0.32605 35002 ft 502 kts 278°
2026-05-07 14:29 53.33691 -0.44128 35002 ft 502 kts 278°
2026-05-07 14:30 53.34827 -0.55673 34999 ft 502 kts 278°
2026-05-07 14:30 53.35964 -0.67137 35002 ft 502 kts 278°
2026-05-07 14:31 53.37094 -0.78673 35005 ft 502 kts 278°
2026-05-07 14:31 53.38223 -0.90248 35003 ft 503 kts 278°
2026-05-07 14:32 53.39330 -1.01796 35009 ft 502 kts 278°
2026-05-07 14:32 53.40426 -1.13367 35004 ft 502 kts 277°
2026-05-07 14:33 53.41516 -1.24927 34997 ft 502 kts 277°
2026-05-07 14:33 53.42583 -1.36433 35001 ft 502 kts 277°
2026-05-07 14:34 53.43663 -1.48089 34989 ft 502 kts 277°
2026-05-07 14:34 53.44719 -1.59615 34996 ft 502 kts 277°
2026-05-07 14:35 53.45758 -1.71187 34991 ft 502 kts 277°
2026-05-07 14:35 53.46876 -1.82796 34990 ft 503 kts 278°
2026-05-07 14:36 53.47954 -1.94371 34989 ft 502 kts 276°
2026-05-07 14:36 53.48939 -2.05976 34990 ft 502 kts 276°
2026-05-07 14:37 53.49935 -2.17610 34987 ft 502 kts 276°
2026-05-07 14:37 53.51341 -2.35054 34978 ft 501 kts 275°
2026-05-07 14:38 53.52287 -2.46598 34974 ft 502 kts 276°
2026-05-07 14:38 53.53259 -2.58217 34966 ft 502 kts 276°
2026-05-07 14:39 53.54219 -2.69818 34975 ft 501 kts 275°
2026-05-07 14:39 53.55167 -2.81421 34970 ft 501 kts 275°
2026-05-07 14:40 53.56107 -2.93024 34968 ft 501 kts 275°
2026-05-07 14:40 53.57030 -3.04560 34972 ft 501 kts 275°
2026-05-07 14:41 53.57950 -3.16202 34970 ft 500 kts 275°
2026-05-07 14:41 53.58854 -3.27793 34971 ft 499 kts 275°
2026-05-07 14:42 53.59746 -3.39379 34965 ft 499 kts 275°
2026-05-07 14:42 53.60627 -3.50980 34962 ft 499 kts 275°
2026-05-07 14:43 53.61496 -3.62588 34950 ft 499 kts 274°
2026-05-07 14:43 53.62060 -3.74181 34952 ft 496 kts 270°
2026-05-07 14:44 53.62415 -3.85724 34948 ft 496 kts 271°
2026-05-07 14:44 53.62882 -3.97307 34941 ft 496 kts 271°
2026-05-07 14:45 53.63333 -4.08913 34943 ft 496 kts 271°
2026-05-07 14:45 53.63772 -4.20504 34943 ft 495 kts 271°
2026-05-07 14:46 53.64210 -4.32086 34937 ft 494 kts 270°
2026-05-07 14:46 53.64625 -4.43569 34934 ft 494 kts 270°
2026-05-07 14:47 53.65034 -4.55110 34937 ft 494 kts 270°
2026-05-07 14:47 53.65440 -4.66681 34932 ft 494 kts 270°
2026-05-07 14:48 53.65842 -4.78208 34933 ft 492 kts 270°
2026-05-07 14:48 53.66223 -4.89721 34929 ft 491 kts 270°
2026-05-07 14:49 53.66579 -5.01241 34929 ft 491 kts 270°
2026-05-07 14:49 53.66945 -5.12757 34926 ft 491 kts 270°
2026-05-07 14:50 53.67282 -5.24195 34932 ft 490 kts 269°
2026-05-07 14:50 53.67603 -5.35679 34922 ft 489 kts 269°
2026-05-07 14:51 53.67939 -5.47124 34918 ft 489 kts 271°
2026-05-07 14:51 53.68721 -5.58558 34919 ft 491 kts 275°
2026-05-07 14:52 53.69588 -5.69954 34913 ft 490 kts 274°
2026-05-07 14:52 53.70397 -5.81299 34916 ft 490 kts 274°
2026-05-07 14:53 53.71211 -5.92738 34900 ft 490 kts 274°
2026-05-07 14:53 53.72011 -6.04175 34906 ft 490 kts 273°
2026-05-07 14:54 53.72799 -6.15581 34893 ft 490 kts 273°
2026-05-07 14:54 53.73577 -6.27026 34897 ft 489 kts 273°
2026-05-07 14:55 53.74342 -6.38425 34886 ft 488 kts 273°
2026-05-07 14:55 53.75095 -6.49830 34873 ft 487 kts 273°
2026-05-07 14:56 53.75834 -6.61197 34872 ft 487 kts 273°
2026-05-07 14:56 53.76559 -6.72517 34871 ft 487 kts 273°
2026-05-07 14:57 53.77276 -6.83891 34876 ft 485 kts 273°
2026-05-07 14:57 53.77981 -6.95232 34863 ft 484 kts 272°
2026-05-07 14:58 53.78674 -7.06575 34861 ft 484 kts 272°
2026-05-07 14:58 53.79355 -7.17894 34861 ft 484 kts 272°
2026-05-07 14:59 53.80023 -7.29198 34860 ft 484 kts 272°
2026-05-07 14:59 53.80681 -7.40521 34848 ft 482 kts 272°
2026-05-07 15:00 53.81326 -7.51805 34856 ft 481 kts 272°
2026-05-07 15:00 53.81960 -7.63100 34850 ft 481 kts 272°
2026-05-07 15:01 53.82582 -7.74364 34852 ft 481 kts 272°
2026-05-07 15:01 53.83193 -7.85625 34850 ft 481 kts 272°
2026-05-07 15:02 53.83791 -7.96888 34861 ft 480 kts 272°
2026-05-07 15:02 53.84377 -8.08093 34852 ft 479 kts 272°
2026-05-07 15:03 53.84954 -8.19326 34853 ft 479 kts 272°
2026-05-07 15:03 53.85521 -8.30574 34866 ft 479 kts 271°
2026-05-07 15:04 53.86076 -8.41821 34866 ft 478 kts 272°
2026-05-07 15:04 53.86618 -8.53031 34868 ft 477 kts 272°
2026-05-07 15:05 53.87151 -8.64241 34859 ft 476 kts 271°
2026-05-07 15:05 53.87668 -8.75358 34865 ft 476 kts 271°
2026-05-07 15:06 53.88178 -8.86545 34856 ft 476 kts 271°
2026-05-07 15:06 53.88676 -8.97721 34867 ft 475 kts 272°
2026-05-07 15:07 53.89164 -9.08894 34859 ft 474 kts 271°
2026-05-07 15:07 53.89641 -9.20050 34872 ft 474 kts 271°
2026-05-07 15:08 53.90107 -9.31214 34866 ft 474 kts 271°
2026-05-07 15:08 53.90562 -9.42367 34866 ft 474 kts 271°
2026-05-07 15:09 53.91003 -9.53423 34874 ft 472 kts 271°
2026-05-07 15:09 53.91436 -9.64527 34869 ft 471 kts 271°
2026-05-07 15:10 53.91857 -9.75629 34872 ft 471 kts 271°
2026-05-07 15:10 53.92268 -9.86743 34875 ft 471 kts 271°
2026-05-07 15:11 53.92667 -9.97823 34873 ft 471 kts 270°
2026-05-07 15:11 53.93060 -10.08910 34874 ft 470 kts 270°
2026-05-07 15:12 53.93438 -10.19977 34866 ft 470 kts 270°
2026-05-07 15:12 53.93805 -10.31064 34873 ft 470 kts 270°
2026-05-07 15:13 53.94102 -10.40244 34870 ft 469 kts 270°
2026-05-07 15:13 53.94451 -10.51336 34871 ft 469 kts 270°
2026-05-07 15:14 53.94790 -10.62398 34882 ft 469 kts 269°
2026-05-07 15:14 53.95116 -10.73463 34866 ft 469 kts 269°
2026-05-07 15:15 53.95432 -10.84479 34870 ft 469 kts 269°
2026-05-07 15:15 53.95739 -10.95567 34882 ft 469 kts 269°
2026-05-07 15:16 53.96035 -11.06606 34875 ft 469 kts 269°
2026-05-07 15:16 53.96322 -11.17695 34881 ft 469 kts 269°
2026-05-07 15:17 53.96598 -11.28769 34870 ft 469 kts 269°
2026-05-07 15:17 53.96866 -11.39845 34878 ft 469 kts 268°
2026-05-07 15:18 53.97121 -11.50853 34876 ft 469 kts 268°
2026-05-07 15:18 53.97366 -11.61905 34876 ft 468 kts 268°
2026-05-07 15:19 53.97602 -11.72954 34880 ft 467 kts 268°
2026-05-07 15:19 53.97827 -11.84003 34879 ft 467 kts 268°
2026-05-07 15:20 53.98041 -11.95027 34875 ft 467 kts 268°
2026-05-07 15:20 53.98244 -12.06006 34879 ft 467 kts 268°
2026-05-07 15:21 53.98438 -12.17033 34873 ft 467 kts 268°
2026-05-07 15:21 53.98622 -12.28072 34880 ft 467 kts 268°
2026-05-07 15:22 53.99258 -12.39076 34836 ft 475 kts 284°
2026-05-07 15:22 54.00657 -12.44191 34855 ft 481 kts 296°
2026-05-07 15:22 54.02452 -12.49031 34908 ft 485 kts 298°
2026-05-07 15:23 54.05902 -12.58885 34884 ft 484 kts 295°
2026-05-07 15:23 54.09230 -12.68857 34903 ft 484 kts 295°
2026-05-07 15:24 54.12568 -12.78753 34904 ft 484 kts 295°
2026-05-07 15:24 54.15919 -12.88701 34889 ft 482 kts 295°
2026-05-07 15:25 54.19259 -12.98626 34878 ft 482 kts 295°
2026-05-07 15:25 54.22591 -13.08535 34886 ft 481 kts 295°
2026-05-07 15:26 54.25844 -13.18541 34873 ft 478 kts 289°
2026-05-07 15:26 54.26931 -13.23852 34836 ft 468 kts 277°
2026-05-07 15:26 54.27278 -13.29332 34871 ft 461 kts 266°
2026-05-07 15:27 54.26648 -13.40171 34921 ft 457 kts 257°
2026-05-07 15:27 54.25389 -13.50795 34908 ft 455 kts 254°
2026-05-07 15:28 54.23874 -13.61237 34886 ft 454 kts 252°
2026-05-07 15:28 54.22229 -13.71654 34886 ft 455 kts 252°
2026-05-07 15:29 54.20527 -13.82107 34891 ft 455 kts 252°
2026-05-07 15:29 54.18807 -13.92511 34911 ft 455 kts 252°
2026-05-07 15:30 54.17074 -14.02897 34903 ft 455 kts 252°
2026-05-07 15:30 54.15330 -14.13261 34908 ft 455 kts 252°
2026-05-07 15:31 54.13574 -14.23625 34907 ft 455 kts 252°
2026-05-07 15:31 54.11812 -14.33966 34907 ft 455 kts 252°
2026-05-07 15:32 54.10038 -14.44318 34913 ft 455 kts 252°
2026-05-07 15:32 54.08251 -14.54686 34917 ft 455 kts 252°
2026-05-07 15:33 54.06462 -14.65004 34905 ft 455 kts 252°
2026-05-07 15:33 54.04671 -14.75271 34925 ft 455 kts 252°
2026-05-07 15:34 54.02861 -14.85588 34908 ft 455 kts 252°
2026-05-07 15:34 54.01091 -14.95929 34910 ft 456 kts 257°
2026-05-07 15:35 54.00792 -15.01308 34898 ft 458 kts 269°
2026-05-07 15:35 54.00899 -15.06724 34950 ft 459 kts 269°
2026-05-07 15:35 54.00753 -15.17539 34931 ft 459 kts 265°
2026-05-07 15:36 54.00655 -15.28378 34922 ft 460 kts 269°
2026-05-07 15:36 54.00828 -15.39273 34930 ft 460 kts 269°
2026-05-07 15:37 54.01005 -15.50159 34947 ft 461 kts 270°
2026-05-07 15:37 54.01181 -15.61041 34935 ft 460 kts 270°
2026-05-07 15:38 54.01361 -15.71944 34935 ft 460 kts 270°
2026-05-07 15:38 54.01531 -15.82817 34941 ft 461 kts 270°
2026-05-07 15:39 54.01691 -15.93708 34945 ft 460 kts 270°
2026-05-07 15:39 54.01841 -16.04530 34948 ft 461 kts 270°
2026-05-07 15:40 54.01983 -16.15458 34949 ft 461 kts 270°
2026-05-07 15:40 54.02115 -16.26361 34946 ft 461 kts 269°
2026-05-07 15:41 54.02237 -16.37264 34946 ft 461 kts 269°
2026-05-07 15:41 54.02348 -16.48115 34952 ft 461 kts 269°
2026-05-07 15:42 54.02451 -16.59035 34953 ft 461 kts 269°
2026-05-07 15:42 54.02543 -16.69956 34958 ft 461 kts 269°
2026-05-07 15:43 54.02625 -16.80863 34959 ft 461 kts 269°
2026-05-07 15:43 54.02698 -16.91753 34965 ft 461 kts 269°
2026-05-07 15:44 54.02761 -17.02679 34964 ft 461 kts 269°
2026-05-07 15:44 54.02813 -17.13515 34968 ft 462 kts 269°
2026-05-07 15:45 54.02856 -17.24466 34971 ft 464 kts 269°
2026-05-07 15:45 54.02890 -17.35466 34972 ft 465 kts 269°
2026-05-07 15:46 54.02922 -17.51991 34971 ft 465 kts 269°
2026-05-07 15:47 54.02930 -17.63005 34979 ft 465 kts 269°
2026-05-07 15:47 54.02927 -17.74024 34977 ft 466 kts 269°
2026-05-07 15:48 54.02918 -17.85038 34980 ft 466 kts 269°
2026-05-07 15:48 54.02896 -17.96090 34981 ft 466 kts 269°
2026-05-07 15:49 54.02865 -18.07047 34985 ft 466 kts 269°
2026-05-07 15:49 54.02822 -18.18082 34987 ft 466 kts 269°
2026-05-07 15:50 54.02770 -18.29104 34989 ft 467 kts 269°
2026-05-07 15:50 54.02709 -18.40165 34992 ft 467 kts 269°
2026-05-07 15:51 54.02637 -18.51218 34998 ft 467 kts 269°
2026-05-07 15:51 54.02554 -18.62249 34996 ft 467 kts 269°
2026-05-07 15:52 54.02461 -18.73300 35004 ft 467 kts 268°
2026-05-07 15:52 54.02358 -18.84362 34997 ft 468 kts 269°
2026-05-07 15:53 54.02246 -18.95446 35024 ft 469 kts 269°
2026-05-07 15:53 54.02124 -19.06469 35008 ft 469 kts 269°
2026-05-07 15:54 54.01991 -19.17583 35012 ft 470 kts 269°
2026-05-07 15:54 54.01848 -19.28677 35013 ft 470 kts 268°
2026-05-07 15:55 54.01693 -19.39795 35017 ft 470 kts 269°
2026-05-07 15:55 54.01529 -19.50923 35019 ft 470 kts 269°
2026-05-07 15:56 54.01355 -19.62045 35024 ft 470 kts 268°
2026-05-07 15:56 54.01170 -19.73107 35023 ft 470 kts 268°
2026-05-07 15:57 54.00975 -19.84223 35022 ft 470 kts 268°
2026-05-07 15:57 54.00767 -19.95358 35017 ft 471 kts 268°
2026-05-07 15:58 54.00235 -20.06459 35029 ft 471 kts 262°
2026-05-07 15:58 53.99199 -20.17370 35031 ft 471 kts 262°
2026-05-07 15:59 53.98412 -20.28424 35042 ft 471 kts 264°
2026-05-07 15:59 53.97757 -20.39486 35026 ft 471 kts 265°
2026-05-07 16:00 53.97082 -20.50555 35036 ft 471 kts 265°
2026-05-07 16:00 53.96411 -20.61643 35045 ft 471 kts 265°
2026-05-07 16:01 53.95737 -20.72714 35043 ft 472 kts 265°
2026-05-07 16:01 53.95051 -20.83796 35047 ft 472 kts 264°
2026-05-07 16:02 53.94475 -20.92988 35056 ft 472 kts 265°
2026-05-07 16:02 53.93769 -21.04093 35053 ft 473 kts 265°
2026-05-07 16:03 53.93053 -21.15214 35054 ft 474 kts 265°
2026-05-07 16:03 53.92327 -21.26327 35056 ft 474 kts 265°
2026-05-07 16:04 53.91589 -21.37452 35055 ft 474 kts 265°
2026-05-07 16:04 53.90842 -21.48553 35045 ft 474 kts 265°
2026-05-07 16:05 53.90090 -21.59576 35059 ft 474 kts 265°
2026-05-07 16:05 53.89322 -21.70695 35064 ft 474 kts 265°
2026-05-07 16:06 53.88542 -21.81812 35057 ft 474 kts 265°
2026-05-07 16:06 53.87754 -21.92906 35065 ft 474 kts 264°
2026-05-07 16:07 53.86955 -22.03990 35065 ft 474 kts 264°
2026-05-07 16:07 53.86146 -22.15072 35069 ft 474 kts 264°
2026-05-07 16:08 53.85327 -22.26158 35071 ft 474 kts 264°
2026-05-07 16:08 53.84501 -22.37190 35073 ft 474 kts 264°
2026-05-07 16:09 53.83661 -22.48271 35076 ft 474 kts 264°
2026-05-07 16:09 53.82809 -22.59350 35074 ft 475 kts 264°
2026-05-07 16:10 53.81949 -22.70432 35076 ft 475 kts 264°
2026-05-07 16:10 53.81076 -22.81538 35083 ft 475 kts 264°
2026-05-07 16:11 53.80193 -22.92621 35088 ft 475 kts 264°
2026-05-07 16:11 53.79299 -23.03714 35086 ft 475 kts 264°
2026-05-07 16:12 53.78393 -23.14801 35085 ft 476 kts 264°
2026-05-07 16:12 53.77480 -23.25895 35085 ft 476 kts 264°
2026-05-07 16:13 53.76555 -23.36983 35104 ft 476 kts 264°
2026-05-07 16:13 53.75619 -23.48076 35091 ft 477 kts 264°
2026-05-07 16:14 53.74672 -23.59163 35090 ft 477 kts 264°
2026-05-07 16:14 53.73719 -23.70182 35099 ft 477 kts 264°
2026-05-07 16:15 53.72754 -23.81269 35108 ft 477 kts 264°
2026-05-07 16:15 53.71774 -23.92369 35106 ft 477 kts 264°
2026-05-07 16:16 53.70784 -24.03463 35111 ft 477 kts 264°
2026-05-07 16:16 53.69785 -24.14532 35084 ft 477 kts 265°
2026-05-07 16:17 53.68775 -24.25622 35109 ft 478 kts 265°
2026-05-07 16:17 53.67761 -24.36639 35109 ft 478 kts 265°
2026-05-07 16:18 53.66730 -24.47709 35113 ft 478 kts 264°
2026-05-07 16:18 53.65688 -24.58790 35114 ft 478 kts 264°
2026-05-07 16:19 53.64635 -24.69846 35114 ft 477 kts 265°
2026-05-07 16:19 53.63576 -24.80889 35117 ft 477 kts 265°
2026-05-07 16:20 53.62504 -24.91946 35122 ft 477 kts 265°
2026-05-07 16:20 53.61425 -25.02967 35122 ft 477 kts 265°
2026-05-07 16:21 53.60332 -25.14010 35122 ft 477 kts 264°
2026-05-07 16:21 53.59237 -25.24950 35114 ft 477 kts 265°
2026-05-07 16:22 53.58129 -25.35954 35133 ft 477 kts 265°
2026-05-07 16:22 53.57009 -25.46953 35134 ft 477 kts 265°
2026-05-07 16:23 53.55880 -25.57941 35141 ft 477 kts 265°
2026-05-07 16:23 53.54739 -25.68926 35105 ft 476 kts 265°
2026-05-07 16:24 53.53594 -25.79833 35131 ft 475 kts 265°
2026-05-07 16:24 53.52440 -25.90765 35137 ft 475 kts 265°
2026-05-07 16:25 53.51273 -26.01701 35138 ft 475 kts 265°
2026-05-07 16:25 53.50098 -26.12617 35146 ft 475 kts 265°
2026-05-07 16:26 53.48909 -26.23543 35124 ft 474 kts 265°
2026-05-07 16:26 53.47717 -26.34403 35152 ft 473 kts 265°
2026-05-07 16:27 53.46516 -26.45269 35151 ft 473 kts 265°
2026-05-07 16:27 53.45312 -26.56061 35155 ft 473 kts 265°
2026-05-07 16:28 53.44091 -26.66917 35158 ft 473 kts 265°
2026-05-07 16:28 53.42857 -26.77757 35141 ft 472 kts 266°
2026-05-07 16:29 53.41620 -26.88578 35154 ft 472 kts 266°
2026-05-07 16:29 53.40372 -26.99401 35157 ft 472 kts 266°
2026-05-07 16:30 53.39115 -27.10198 35156 ft 472 kts 266°
2026-05-07 16:30 53.37854 -27.20939 35165 ft 472 kts 266°
2026-05-07 16:31 53.36578 -27.31722 35166 ft 472 kts 265°
2026-05-07 16:31 53.35290 -27.42518 35162 ft 472 kts 265°
2026-05-07 16:32 53.33993 -27.53303 35174 ft 473 kts 265°
2026-05-07 16:32 53.32686 -27.64072 35173 ft 472 kts 265°
2026-05-07 16:33 53.31370 -27.74832 35122 ft 471 kts 266°
2026-05-07 16:33 53.30045 -27.85528 35166 ft 469 kts 266°
2026-05-07 16:34 53.28721 -27.96195 35183 ft 468 kts 266°
2026-05-07 16:34 53.27389 -28.06838 35169 ft 469 kts 266°
2026-05-07 16:35 53.26046 -28.17482 35186 ft 468 kts 266°
2026-05-07 16:35 53.24690 -28.28127 35157 ft 467 kts 267°
2026-05-07 16:36 53.23341 -28.38655 35187 ft 466 kts 267°
2026-05-07 16:36 53.21977 -28.49221 35187 ft 466 kts 267°
2026-05-07 16:37 53.20599 -28.59807 35191 ft 466 kts 266°
2026-05-07 16:37 53.19216 -28.70370 35188 ft 466 kts 266°
2026-05-07 16:38 53.17823 -28.80924 35178 ft 466 kts 267°
2026-05-07 16:38 53.16419 -28.91489 35196 ft 466 kts 267°
2026-05-07 16:39 53.15009 -29.02027 35193 ft 466 kts 267°
2026-05-07 16:39 53.13595 -29.12507 35205 ft 466 kts 267°
2026-05-07 16:40 53.12163 -29.23052 35202 ft 467 kts 267°
2026-05-07 16:40 53.10722 -29.33570 35194 ft 466 kts 267°
2026-05-07 16:41 53.09276 -29.44069 35202 ft 466 kts 267°
2026-05-07 16:41 53.07816 -29.54592 35204 ft 466 kts 267°
2026-05-07 16:42 53.06348 -29.65100 35207 ft 466 kts 267°
2026-05-07 16:42 53.04881 -29.75505 35201 ft 465 kts 267°
2026-05-07 16:43 53.03398 -29.85929 35202 ft 462 kts 267°
2026-05-07 16:43 53.01915 -29.96309 35216 ft 461 kts 267°
2026-05-07 16:44 53.00563 -30.06687 35211 ft 462 kts 266°
2026-05-07 16:44 52.98709 -30.17003 35218 ft 465 kts 265°
2026-05-07 16:45 52.97259 -30.27344 35172 ft 455 kts 270°
2026-05-07 16:45 52.96132 -30.37600 35217 ft 454 kts 270°
2026-05-07 16:46 52.94996 -30.47914 35226 ft 454 kts 270°
2026-05-07 16:46 52.93875 -30.58209 35225 ft 453 kts 270°
2026-05-07 16:47 52.92759 -30.68517 35226 ft 453 kts 270°
2026-05-07 16:47 52.91638 -30.78794 35190 ft 454 kts 270°
2026-05-07 16:48 52.90513 -30.89032 35217 ft 454 kts 270°
2026-05-07 16:48 52.89371 -30.99339 35234 ft 455 kts 270°
2026-05-07 16:49 52.88221 -31.09636 35232 ft 455 kts 270°
2026-05-07 16:49 52.87061 -31.19933 35237 ft 455 kts 270°
2026-05-07 16:50 52.85893 -31.30228 35197 ft 456 kts 269°
2026-05-07 16:50 52.84913 -31.38798 35228 ft 457 kts 269°
2026-05-07 16:51 52.83724 -31.49117 35231 ft 456 kts 269°
2026-05-07 16:51 52.82525 -31.59438 35236 ft 457 kts 269°
2026-05-07 16:52 52.81318 -31.69755 35242 ft 457 kts 269°
2026-05-07 16:52 52.80102 -31.80058 35243 ft 457 kts 269°
2026-05-07 16:53 52.78885 -31.90295 35241 ft 458 kts 268°
2026-05-07 16:53 52.77648 -32.00607 35242 ft 458 kts 268°
2026-05-07 16:54 52.76402 -32.10910 35249 ft 458 kts 268°
2026-05-07 16:54 52.75147 -32.21218 35237 ft 458 kts 268°
2026-05-07 16:55 52.73880 -32.31545 35246 ft 458 kts 268°
2026-05-07 16:55 52.72605 -32.41857 35247 ft 458 kts 268°
2026-05-07 16:56 52.71320 -32.52171 35252 ft 458 kts 268°
2026-05-07 16:56 52.69385 -32.67566 35256 ft 459 kts 268°
2026-05-07 16:57 52.68078 -32.77857 35247 ft 459 kts 268°
2026-05-07 16:57 52.66764 -32.88147 35234 ft 459 kts 268°
2026-05-07 16:58 52.65438 -32.98447 35242 ft 460 kts 267°
2026-05-07 16:58 52.64102 -33.08738 35248 ft 459 kts 267°
2026-05-07 16:59 52.62762 -33.18988 35255 ft 458 kts 267°
2026-05-07 16:59 52.61412 -33.29247 35253 ft 459 kts 267°
2026-05-07 17:00 52.60061 -33.39435 35239 ft 458 kts 267°
2026-05-07 17:00 52.58694 -33.49678 35260 ft 459 kts 267°
2026-05-07 17:01 52.57315 -33.59931 35246 ft 459 kts 266°
2026-05-07 17:01 52.55927 -33.70180 35262 ft 459 kts 266°
2026-05-07 17:02 52.54530 -33.80424 35247 ft 459 kts 266°
2026-05-07 17:02 52.53123 -33.90676 35241 ft 459 kts 266°
2026-05-07 17:03 52.51707 -34.00914 35253 ft 460 kts 266°
2026-05-07 17:03 52.50284 -34.11133 35260 ft 460 kts 266°
2026-05-07 17:04 52.48860 -34.21295 35256 ft 460 kts 266°
2026-05-07 17:04 52.47415 -34.31530 35264 ft 460 kts 266°
2026-05-07 17:05 52.45963 -34.41761 35252 ft 461 kts 265°
2026-05-07 17:05 52.44501 -34.51982 35261 ft 461 kts 265°
2026-05-07 17:06 52.43025 -34.62221 35258 ft 461 kts 265°
2026-05-07 17:06 52.41545 -34.72428 35264 ft 460 kts 265°
2026-05-07 17:07 52.40053 -34.82651 35259 ft 460 kts 265°
2026-05-07 17:07 52.38560 -34.92822 35261 ft 461 kts 264°
2026-05-07 17:08 52.37058 -35.02974 35258 ft 461 kts 264°
2026-05-07 17:08 52.35538 -35.13188 35266 ft 461 kts 264°
2026-05-07 17:09 52.34009 -35.23396 35263 ft 461 kts 264°
2026-05-07 17:09 52.32484 -35.33515 35267 ft 461 kts 264°
2026-05-07 17:10 52.30941 -35.43687 35262 ft 462 kts 264°
2026-05-07 17:10 52.29384 -35.53890 35265 ft 462 kts 264°
2026-05-07 17:11 52.27818 -35.64078 35266 ft 463 kts 264°
2026-05-07 17:11 52.26243 -35.74270 35264 ft 463 kts 264°
2026-05-07 17:12 52.24658 -35.84458 35226 ft 463 kts 263°
2026-05-07 17:12 52.23061 -35.94662 35257 ft 464 kts 263°
2026-05-07 17:13 52.21457 -36.04851 35265 ft 464 kts 263°
2026-05-07 17:13 52.19841 -36.15047 35263 ft 463 kts 263°
2026-05-07 17:14 52.18219 -36.25204 35264 ft 463 kts 263°
2026-05-07 17:14 52.16601 -36.35291 35239 ft 463 kts 262°
2026-05-07 17:15 52.14964 -36.45437 35259 ft 464 kts 262°
2026-05-07 17:15 52.13312 -36.55611 35273 ft 464 kts 262°
2026-05-07 17:16 52.11653 -36.65766 35265 ft 464 kts 262°
2026-05-07 17:16 52.09996 -36.75848 35272 ft 464 kts 262°
2026-05-07 17:17 52.08318 -36.86003 35239 ft 464 kts 262°
2026-05-07 17:17 52.06633 -36.96142 35257 ft 465 kts 262°
2026-05-07 17:18 52.04934 -37.06293 35262 ft 465 kts 261°
2026-05-07 17:18 52.03232 -37.16412 35262 ft 465 kts 261°
2026-05-07 17:19 52.01514 -37.26561 35262 ft 465 kts 261°
2026-05-07 17:19 51.99791 -37.36680 35262 ft 465 kts 261°
2026-05-07 17:20 51.98060 -37.46794 35259 ft 465 kts 261°
2026-05-07 17:20 51.96318 -37.56906 35258 ft 465 kts 261°
2026-05-07 17:21 51.94578 -37.66949 35259 ft 465 kts 261°
2026-05-07 17:21 51.92819 -37.77033 35258 ft 464 kts 261°
2026-05-07 17:22 51.91056 -37.87102 35254 ft 465 kts 260°
2026-05-07 17:22 51.89290 -37.97125 35257 ft 465 kts 260°
2026-05-07 17:23 51.87493 -38.07265 35259 ft 465 kts 260°
2026-05-07 17:23 51.85716 -38.17242 35260 ft 465 kts 260°
2026-05-07 17:24 51.83911 -38.27317 35235 ft 465 kts 259°
2026-05-07 17:24 51.82099 -38.37378 35252 ft 466 kts 259°
2026-05-07 17:25 51.80276 -38.47437 35256 ft 466 kts 259°
2026-05-07 17:25 51.78451 -38.57456 35256 ft 466 kts 259°
2026-05-07 17:26 51.76623 -38.67441 35254 ft 466 kts 259°
2026-05-07 17:26 51.74772 -38.77494 35237 ft 466 kts 259°
2026-05-07 17:27 51.72914 -38.87537 35251 ft 467 kts 259°
2026-05-07 17:27 51.71046 -38.97569 35254 ft 467 kts 259°
2026-05-07 17:28 51.69171 -39.07588 35245 ft 467 kts 258°
2026-05-07 17:28 51.67296 -39.17549 35251 ft 466 kts 258°
2026-05-07 17:29 51.65402 -39.27559 35261 ft 467 kts 258°
2026-05-07 17:29 51.63495 -39.37593 35256 ft 468 kts 258°
2026-05-07 17:30 51.61593 -39.47541 35252 ft 468 kts 258°
2026-05-07 17:30 51.59670 -39.57550 35256 ft 468 kts 258°
2026-05-07 17:31 51.57737 -39.67554 35246 ft 468 kts 258°
2026-05-07 17:31 51.55796 -39.77556 35245 ft 470 kts 257°
2026-05-07 17:32 51.53836 -39.87605 35242 ft 470 kts 257°
2026-05-07 17:32 51.52202 -39.95935 35243 ft 470 kts 257°
2026-05-07 17:33 51.50350 -40.07780 35239 ft 468 kts 260°
2026-05-07 17:33 51.48581 -40.17879 35218 ft 470 kts 259°
2026-05-07 17:34 51.47196 -40.28033 35235 ft 468 kts 264°
2026-05-07 17:34 51.46068 -40.38313 35238 ft 468 kts 264°
2026-05-07 17:35 51.44940 -40.48596 35232 ft 468 kts 264°
2026-05-07 17:35 51.43824 -40.58882 35240 ft 468 kts 264°
2026-05-07 17:36 51.42711 -40.69191 35226 ft 469 kts 264°
2026-05-07 17:36 51.41588 -40.79508 35222 ft 470 kts 264°
2026-05-07 17:37 51.40648 -40.88080 35230 ft 471 kts 264°
2026-05-07 17:37 51.39507 -40.98404 35226 ft 471 kts 264°
2026-05-07 17:38 51.38356 -41.08738 35232 ft 471 kts 264°
2026-05-07 17:38 51.37198 -41.19046 35221 ft 471 kts 264°
2026-05-07 17:39 51.36026 -41.29400 35217 ft 472 kts 263°
2026-05-07 17:39 51.34855 -41.39665 35217 ft 472 kts 263°
2026-05-07 17:40 51.33666 -41.49989 35233 ft 472 kts 263°
2026-05-07 17:40 51.32468 -41.60303 35227 ft 472 kts 263°
2026-05-07 17:41 51.31261 -41.70626 35232 ft 472 kts 263°
2026-05-07 17:41 51.30051 -41.80888 35214 ft 472 kts 262°
2026-05-07 17:42 51.28825 -41.91206 35212 ft 473 kts 262°
2026-05-07 17:42 51.27586 -42.01547 35212 ft 473 kts 262°
2026-05-07 17:43 51.26341 -42.11855 35215 ft 473 kts 262°
2026-05-07 17:43 51.25087 -42.22165 35212 ft 473 kts 262°
2026-05-07 17:44 51.23822 -42.32479 35213 ft 473 kts 262°
2026-05-07 17:44 51.22549 -42.42784 35214 ft 472 kts 262°
2026-05-07 17:45 51.21277 -42.52987 35213 ft 471 kts 262°
2026-05-07 17:45 51.19988 -42.63248 35211 ft 471 kts 262°
2026-05-07 17:46 51.18695 -42.73480 35213 ft 471 kts 261°
2026-05-07 17:46 51.17393 -42.83706 35204 ft 471 kts 261°
2026-05-07 17:47 51.16077 -42.93961 35206 ft 472 kts 261°
2026-05-07 17:47 51.14754 -43.04190 35202 ft 472 kts 261°
2026-05-07 17:48 51.13431 -43.14359 35207 ft 472 kts 261°
2026-05-07 17:48 51.12089 -43.24590 35204 ft 472 kts 261°
2026-05-07 17:49 51.10741 -43.34805 35197 ft 472 kts 260°
2026-05-07 17:49 51.09384 -43.45004 35199 ft 470 kts 260°
2026-05-07 17:50 51.08013 -43.55209 35203 ft 470 kts 260°
2026-05-07 17:50 51.06649 -43.65315 35199 ft 470 kts 260°
2026-05-07 17:51 51.05267 -43.75485 35201 ft 470 kts 259°
2026-05-07 17:51 51.03877 -43.85645 35190 ft 470 kts 259°
2026-05-07 17:52 51.02476 -43.95811 35196 ft 471 kts 259°
2026-05-07 17:52 51.01069 -44.05952 35202 ft 471 kts 259°
2026-05-07 17:53 50.99648 -44.16121 35196 ft 471 kts 259°
2026-05-07 17:53 50.98231 -44.26199 35198 ft 471 kts 259°
2026-05-07 17:54 50.96797 -44.36331 35191 ft 470 kts 258°
2026-05-07 17:54 50.95350 -44.46468 35195 ft 470 kts 258°
2026-05-07 17:55 50.93902 -44.56550 35194 ft 470 kts 258°
2026-05-07 17:55 50.92452 -44.66585 35192 ft 470 kts 258°
2026-05-07 17:56 50.90984 -44.76678 35199 ft 470 kts 258°
2026-05-07 17:56 50.89507 -44.86771 35184 ft 470 kts 257°
2026-05-07 17:57 50.88274 -44.95152 35193 ft 471 kts 257°
2026-05-07 17:57 50.86525 -45.06956 35198 ft 471 kts 257°
2026-05-07 17:58 50.85019 -45.17051 35196 ft 471 kts 257°
2026-05-07 17:58 50.83504 -45.27143 35205 ft 470 kts 257°
2026-05-07 17:59 50.81993 -45.37130 35188 ft 468 kts 257°
2026-05-07 17:59 50.80467 -45.47147 35193 ft 468 kts 257°
2026-05-07 18:00 50.78935 -45.57150 35201 ft 468 kts 257°
2026-05-07 18:00 50.77397 -45.67130 35198 ft 467 kts 256°
2026-05-07 18:01 50.75857 -45.77063 35196 ft 467 kts 256°
2026-05-07 18:01 50.74301 -45.87047 35194 ft 468 kts 256°
2026-05-07 18:02 50.71953 -46.01991 35195 ft 467 kts 256°
2026-05-07 18:03 50.70377 -46.11947 35195 ft 467 kts 256°
2026-05-07 18:03 50.68794 -46.21886 35202 ft 466 kts 256°
2026-05-07 18:04 50.67207 -46.31791 35196 ft 465 kts 256°
2026-05-07 18:04 50.65612 -46.41677 35190 ft 465 kts 255°
2026-05-07 18:05 50.64020 -46.51483 35196 ft 465 kts 255°
2026-05-07 18:05 50.62409 -46.61353 35193 ft 465 kts 255°
2026-05-07 18:06 50.60793 -46.71204 35194 ft 465 kts 255°
2026-05-07 18:06 50.59169 -46.81044 35189 ft 465 kts 255°
2026-05-07 18:07 50.57536 -46.90887 35180 ft 465 kts 255°
2026-05-07 18:07 50.55895 -47.00719 35188 ft 465 kts 255°
2026-05-07 18:08 50.54245 -47.10544 35193 ft 465 kts 255°
2026-05-07 18:08 50.52595 -47.20322 35190 ft 461 kts 254°
2026-05-07 18:09 50.50938 -47.30048 35184 ft 459 kts 254°
2026-05-07 18:09 50.49291 -47.39662 35185 ft 459 kts 254°
2026-05-07 18:10 50.47632 -47.49313 35188 ft 458 kts 254°
2026-05-07 18:10 50.45959 -47.58996 35183 ft 458 kts 254°
2026-05-07 18:11 50.44284 -47.68641 35180 ft 458 kts 254°
2026-05-07 18:11 50.42601 -47.78284 35182 ft 458 kts 253°
2026-05-07 18:12 50.40910 -47.87918 35174 ft 458 kts 253°
2026-05-07 18:12 50.39221 -47.97488 35177 ft 458 kts 253°
2026-05-07 18:13 50.37514 -48.07107 35199 ft 457 kts 253°
2026-05-07 18:13 50.35813 -48.16635 35180 ft 453 kts 253°
2026-05-07 18:14 50.34100 -48.26142 35173 ft 452 kts 253°
2026-05-07 18:14 50.32389 -48.35611 35174 ft 452 kts 253°
2026-05-07 18:15 50.30678 -48.45051 35176 ft 451 kts 252°
2026-05-07 18:15 50.28968 -48.54420 35174 ft 450 kts 252°
2026-05-07 18:16 50.27242 -48.63837 35166 ft 450 kts 252°
2026-05-07 18:16 50.25510 -48.73245 35167 ft 450 kts 252°
2026-05-07 18:17 50.23771 -48.82644 35167 ft 450 kts 252°
2026-05-07 18:17 50.22024 -48.92042 35161 ft 450 kts 252°
2026-05-07 18:18 50.20271 -49.01428 35179 ft 448 kts 252°
2026-05-07 18:18 50.18520 -49.10739 35158 ft 447 kts 251°
2026-05-07 18:19 50.16761 -49.20021 35159 ft 446 kts 251°
2026-05-07 18:19 50.15007 -49.29254 35154 ft 446 kts 251°
2026-05-07 18:20 50.13236 -49.38541 35147 ft 446 kts 251°
2026-05-07 18:20 50.11463 -49.47795 35147 ft 446 kts 251°
2026-05-07 18:21 50.09676 -49.57079 35145 ft 446 kts 251°
2026-05-07 18:21 50.07886 -49.66331 35144 ft 446 kts 251°
2026-05-07 18:22 50.06090 -49.75570 35137 ft 446 kts 251°
2026-05-07 18:22 50.04282 -49.84828 35133 ft 447 kts 251°
2026-05-07 18:23 50.02479 -49.94013 35134 ft 447 kts 251°
2026-05-07 18:23 50.00489 -50.03161 35128 ft 446 kts 246°
2026-05-07 18:24 49.97782 -50.11788 35120 ft 444 kts 241°
2026-05-07 18:24 49.95594 -50.19045 35121 ft 445 kts 246°
2026-05-07 18:25 49.92986 -50.29528 35122 ft 446 kts 247°
2026-05-07 18:25 49.90789 -50.38473 35120 ft 446 kts 247°
2026-05-07 18:26 49.88940 -50.46015 35118 ft 446 kts 247°
2026-05-07 18:26 49.86744 -50.55024 35114 ft 446 kts 247°
2026-05-07 18:27 49.84559 -50.63966 35112 ft 446 kts 247°
2026-05-07 18:27 49.82357 -50.72945 35110 ft 447 kts 247°
2026-05-07 18:28 49.80143 -50.81938 35105 ft 447 kts 247°
2026-05-07 18:28 49.77920 -50.90938 35096 ft 448 kts 246°
2026-05-07 18:29 49.75684 -50.99946 35093 ft 448 kts 246°
2026-05-07 18:29 49.73446 -51.08923 35103 ft 449 kts 246°
2026-05-07 18:30 49.71187 -51.17957 35092 ft 449 kts 246°
2026-05-07 18:30 49.68925 -51.26965 35103 ft 450 kts 246°
2026-05-07 18:31 49.66667 -51.35915 35089 ft 450 kts 246°
2026-05-07 18:31 49.64387 -51.44924 35081 ft 450 kts 246°
2026-05-07 18:32 49.62106 -51.53899 35087 ft 450 kts 246°
2026-05-07 18:32 49.59811 -51.62893 35076 ft 450 kts 245°
2026-05-07 18:33 49.57514 -51.71858 35065 ft 450 kts 245°
2026-05-07 18:33 49.55204 -51.80837 35063 ft 450 kts 245°
2026-05-07 18:34 49.52894 -51.89788 35076 ft 449 kts 245°
2026-05-07 18:34 49.50574 -51.98680 35053 ft 447 kts 244°
2026-05-07 18:35 49.48008 -52.07358 35037 ft 445 kts 241°
2026-05-07 18:35 49.45332 -52.15955 35033 ft 445 kts 242°
2026-05-07 18:36 49.42763 -52.24603 35031 ft 445 kts 242°
2026-05-07 18:36 49.40196 -52.33284 35030 ft 445 kts 242°
2026-05-07 18:37 49.37630 -52.41922 35024 ft 445 kts 242°
2026-05-07 18:37 49.35070 -52.50526 35006 ft 446 kts 242°
2026-05-07 18:38 49.32485 -52.59190 35007 ft 446 kts 242°
2026-05-07 18:38 49.29896 -52.67834 34998 ft 446 kts 242°
2026-05-07 18:39 49.27300 -52.76472 34998 ft 446 kts 242°
2026-05-07 18:39 49.24702 -52.85086 34995 ft 447 kts 242°
2026-05-07 18:40 49.22103 -52.93670 35006 ft 446 kts 242°
2026-05-07 18:40 49.19493 -53.02271 34989 ft 445 kts 242°
2026-05-07 18:41 49.16878 -53.10852 34975 ft 445 kts 242°
2026-05-07 18:41 49.14253 -53.19432 34976 ft 445 kts 242°
2026-05-07 18:42 49.11633 -53.27967 34975 ft 444 kts 242°
2026-05-07 18:42 49.09003 -53.36510 34965 ft 444 kts 242°
2026-05-07 18:43 49.06388 -53.44974 34971 ft 444 kts 242°
2026-05-07 18:43 49.03748 -53.53486 34969 ft 444 kts 242°
2026-05-07 18:44 49.01103 -53.61987 34974 ft 443 kts 242°
2026-05-07 18:44 48.98452 -53.70475 34971 ft 443 kts 242°
2026-05-07 18:45 48.95796 -53.78955 34972 ft 443 kts 242°
2026-05-07 18:45 48.93153 -53.87362 34972 ft 443 kts 242°
2026-05-07 18:46 48.90492 -53.95798 34992 ft 441 kts 242°
2026-05-07 18:46 48.87839 -54.04177 34986 ft 439 kts 242°
2026-05-07 18:47 48.85200 -54.12487 34972 ft 435 kts 244°
2026-05-07 18:47 48.82569 -54.20746 34986 ft 434 kts 244°
2026-05-07 18:48 48.79927 -54.29010 34986 ft 434 kts 243°
2026-05-07 18:48 48.77290 -54.37232 34968 ft 434 kts 243°
2026-05-07 18:49 48.74664 -54.45389 34967 ft 432 kts 244°
2026-05-07 18:49 48.72025 -54.53558 34963 ft 431 kts 244°
2026-05-07 18:50 48.69386 -54.61711 34958 ft 430 kts 244°
2026-05-07 18:50 48.66750 -54.69821 34952 ft 430 kts 244°
2026-05-07 18:51 48.64107 -54.77929 34947 ft 430 kts 244°
2026-05-07 18:51 48.61464 -54.86014 34923 ft 428 kts 243°
2026-05-07 18:52 48.58821 -54.94066 34965 ft 426 kts 243°
2026-05-07 18:52 48.56206 -55.02010 34925 ft 424 kts 243°
2026-05-07 18:53 48.53579 -55.09954 34921 ft 423 kts 243°
2026-05-07 18:53 48.50952 -55.17882 34912 ft 422 kts 243°
2026-05-07 18:54 48.48316 -55.25807 34912 ft 422 kts 243°
2026-05-07 18:54 48.45682 -55.33715 34896 ft 422 kts 243°
2026-05-07 18:55 48.43054 -55.41582 34896 ft 422 kts 243°
2026-05-07 18:55 48.40413 -55.49461 34891 ft 422 kts 243°
2026-05-07 18:56 48.37759 -55.57348 34888 ft 422 kts 243°
2026-05-07 18:56 48.35103 -55.65222 34880 ft 421 kts 243°
2026-05-07 18:57 48.32464 -55.73018 34868 ft 421 kts 243°
2026-05-07 18:57 48.29800 -55.80867 34867 ft 421 kts 243°
2026-05-07 18:58 48.27129 -55.88708 34869 ft 421 kts 243°
2026-05-07 18:58 48.24457 -55.96534 34875 ft 420 kts 242°
2026-05-07 18:59 48.21792 -56.04305 34856 ft 419 kts 242°
2026-05-07 18:59 48.19121 -56.12076 34847 ft 419 kts 242°
2026-05-07 19:00 48.16442 -56.19847 34851 ft 419 kts 242°
2026-05-07 19:00 48.13781 -56.27543 34846 ft 419 kts 242°
2026-05-07 19:01 48.11101 -56.35273 34842 ft 419 kts 242°
2026-05-07 19:01 48.08393 -56.43062 34843 ft 422 kts 242°
2026-05-07 19:02 48.05674 -56.50867 34847 ft 423 kts 242°
2026-05-07 19:02 48.02949 -56.58662 34846 ft 423 kts 242°
2026-05-07 19:03 48.00213 -56.66460 34858 ft 423 kts 242°
2026-05-07 19:03 47.97489 -56.74203 34844 ft 425 kts 241°
2026-05-07 19:04 47.94729 -56.82028 34862 ft 426 kts 241°
2026-05-07 19:04 47.91965 -56.89843 34900 ft 425 kts 240°
2026-05-07 19:05 47.89199 -56.97629 34879 ft 424 kts 240°
2026-05-07 19:05 47.86431 -57.05394 34879 ft 424 kts 240°
2026-05-07 19:06 47.83659 -57.13152 34888 ft 424 kts 240°
2026-05-07 19:06 47.79494 -57.24773 34885 ft 424 kts 240°
2026-05-07 19:07 47.76722 -57.32476 34888 ft 424 kts 240°
2026-05-07 19:07 47.73932 -57.40207 34887 ft 425 kts 240°
2026-05-07 19:08 47.71139 -57.47925 34893 ft 424 kts 240°
2026-05-07 19:08 47.68333 -57.55658 34885 ft 424 kts 240°
2026-05-07 19:09 47.65524 -57.63369 34880 ft 424 kts 240°
2026-05-07 19:09 47.62716 -57.71058 34874 ft 424 kts 240°
2026-05-07 19:10 47.59900 -57.78750 34878 ft 424 kts 240°
2026-05-07 19:10 47.57074 -57.86447 34879 ft 425 kts 238°
2026-05-07 19:11 47.54260 -57.94087 34857 ft 425 kts 238°
2026-05-07 19:11 47.51422 -58.01772 34843 ft 425 kts 238°
2026-05-07 19:12 47.48581 -58.09439 34853 ft 425 kts 238°
2026-05-07 19:12 47.45729 -58.17119 34834 ft 425 kts 238°
2026-05-07 19:13 47.43359 -58.23477 34834 ft 425 kts 238°
2026-05-07 19:13 47.40504 -58.31122 34826 ft 425 kts 238°
2026-05-07 19:14 47.37644 -58.38756 34824 ft 425 kts 238°
2026-05-07 19:14 47.34782 -58.46375 34812 ft 424 kts 238°
2026-05-07 19:15 47.31932 -58.53940 34811 ft 424 kts 238°
2026-05-07 19:15 47.29054 -58.61542 34793 ft 424 kts 239°
2026-05-07 19:16 47.26176 -58.69150 34783 ft 424 kts 239°
2026-05-07 19:16 47.23305 -58.76714 34782 ft 424 kts 238°
2026-05-07 19:17 47.20419 -58.84282 34768 ft 423 kts 238°
2026-05-07 19:17 47.17534 -58.91828 34767 ft 423 kts 239°
2026-05-07 19:18 47.14666 -58.99313 34757 ft 423 kts 239°
2026-05-07 19:18 47.11754 -59.06892 34759 ft 423 kts 239°
2026-05-07 19:19 47.08867 -59.14383 34744 ft 422 kts 239°
2026-05-07 19:19 47.05983 -59.21845 34745 ft 422 kts 238°
2026-05-07 19:20 47.03091 -59.29303 34735 ft 419 kts 239°
2026-05-07 19:20 47.00212 -59.36706 34735 ft 417 kts 239°
2026-05-07 19:21 46.97336 -59.44077 34729 ft 417 kts 239°
2026-05-07 19:21 46.94456 -59.51445 34730 ft 416 kts 239°
2026-05-07 19:22 46.91581 -59.58780 34719 ft 416 kts 239°
2026-05-07 19:22 46.88691 -59.66134 34715 ft 416 kts 239°
2026-05-07 19:23 46.85825 -59.73409 34711 ft 416 kts 239°
2026-05-07 19:23 46.82921 -59.80762 34696 ft 415 kts 239°
2026-05-07 19:24 46.80046 -59.88019 34696 ft 415 kts 239°
2026-05-07 19:24 46.77153 -59.95302 34695 ft 413 kts 239°
2026-05-07 19:25 46.74274 -60.02529 34690 ft 411 kts 239°
2026-05-07 19:25 46.71393 -60.09736 34683 ft 411 kts 239°
2026-05-07 19:26 46.68512 -60.16927 34684 ft 410 kts 239°
2026-05-07 19:26 46.65630 -60.24103 34680 ft 410 kts 239°
2026-05-07 19:27 46.62752 -60.31253 34675 ft 409 kts 239°
2026-05-07 19:27 46.59874 -60.38385 34676 ft 409 kts 239°
2026-05-07 19:28 46.56990 -60.45513 34704 ft 409 kts 239°
2026-05-07 19:28 46.54131 -60.52593 34668 ft 408 kts 238°
2026-05-07 19:29 46.51235 -60.59697 34667 ft 409 kts 238°
2026-05-07 19:29 46.48348 -60.66755 34658 ft 404 kts 239°
2026-05-07 19:30 46.45487 -60.73742 34664 ft 402 kts 239°
2026-05-07 19:30 46.42647 -60.80660 34666 ft 402 kts 239°
2026-05-07 19:31 46.39786 -60.87618 34653 ft 401 kts 239°
2026-05-07 19:31 46.36925 -60.94564 34640 ft 401 kts 239°
2026-05-07 19:32 46.34081 -61.01449 34649 ft 397 kts 239°
2026-05-07 19:32 46.31239 -61.08300 34648 ft 396 kts 239°
2026-05-07 19:33 46.28408 -61.15112 34652 ft 396 kts 239°
2026-05-07 19:33 46.25586 -61.21895 34644 ft 396 kts 239°
2026-05-07 19:34 46.22742 -61.28712 34650 ft 391 kts 239°
2026-05-07 19:34 46.21372 -61.32014 34660 ft 378 kts 239°
2026-05-07 19:34 46.20025 -61.35231 34629 ft 377 kts 237°
2026-05-07 19:35 46.17266 -61.41746 34614 ft 386 kts 239°
2026-05-07 19:35 46.14483 -61.48367 34636 ft 390 kts 239°
2026-05-07 19:36 46.11673 -61.55065 34633 ft 390 kts 239°
2026-05-07 19:36 46.08850 -61.61761 34634 ft 388 kts 239°
2026-05-07 19:37 46.06042 -61.68393 34638 ft 387 kts 239°
2026-05-07 19:37 46.03242 -61.74989 34639 ft 386 kts 239°
2026-05-07 19:38 46.00438 -61.81582 34637 ft 386 kts 239°
2026-05-07 19:38 45.97647 -61.88130 34631 ft 386 kts 239°
2026-05-07 19:39 45.94839 -61.94701 34619 ft 384 kts 239°
2026-05-07 19:39 45.92053 -62.01201 34628 ft 382 kts 239°
2026-05-07 19:40 45.89251 -62.07724 34623 ft 382 kts 239°
2026-05-07 19:40 45.86479 -62.14164 34624 ft 382 kts 239°
2026-05-07 19:41 45.83668 -62.20687 34631 ft 384 kts 239°
2026-05-07 19:41 45.80863 -62.27185 34617 ft 382 kts 239°
2026-05-07 19:42 45.78066 -62.33637 34618 ft 380 kts 239°
2026-05-07 19:42 45.75272 -62.40059 34614 ft 379 kts 239°
2026-05-07 19:43 45.72483 -62.46464 34612 ft 379 kts 239°
2026-05-07 19:43 45.69686 -62.52875 34610 ft 379 kts 239°
2026-05-07 19:44 45.66903 -62.59239 34586 ft 375 kts 240°
2026-05-07 19:44 45.64146 -62.65516 34602 ft 373 kts 239°
2026-05-07 19:45 45.61385 -62.71791 34614 ft 373 kts 239°
2026-05-07 19:45 45.58620 -62.78068 34615 ft 372 kts 239°
2026-05-07 19:46 45.55856 -62.84332 34609 ft 373 kts 239°
2026-05-07 19:46 45.53110 -62.90542 34611 ft 372 kts 239°
2026-05-07 19:47 45.50338 -62.96800 34677 ft 375 kts 239°
2026-05-07 19:47 45.47536 -63.03126 34622 ft 378 kts 239°
2026-05-07 19:48 45.44730 -63.09450 34610 ft 378 kts 239°
2026-05-07 19:48 45.41912 -63.15776 34603 ft 378 kts 239°
2026-05-07 19:49 45.39092 -63.22083 34601 ft 374 kts 239°
2026-05-07 19:49 45.36313 -63.28270 34607 ft 373 kts 239°
2026-05-07 19:50 45.33525 -63.34468 34610 ft 372 kts 239°
2026-05-07 19:50 45.30739 -63.40653 34610 ft 371 kts 239°
2026-05-07 19:51 45.27948 -63.46840 34602 ft 371 kts 239°
2026-05-07 19:51 45.25161 -63.53001 34595 ft 369 kts 239°
2026-05-07 19:52 45.22386 -63.59117 34609 ft 368 kts 239°
2026-05-07 19:52 45.19614 -63.65214 34610 ft 367 kts 239°
2026-05-07 19:53 45.16844 -63.71300 34612 ft 367 kts 239°
2026-05-07 19:53 45.14083 -63.77362 34639 ft 370 kts 239°
2026-05-07 19:54 45.11291 -63.83484 34619 ft 369 kts 239°
2026-05-07 19:54 45.08499 -63.89581 34619 ft 368 kts 239°
2026-05-07 19:55 45.05709 -63.95659 34627 ft 368 kts 239°
2026-05-07 19:55 45.02915 -64.01733 34624 ft 368 kts 239°
2026-05-07 19:56 45.00130 -64.07778 34621 ft 367 kts 239°
2026-05-07 19:56 44.97338 -64.13818 34614 ft 365 kts 239°
2026-05-07 19:57 44.94567 -64.19794 34620 ft 364 kts 239°
2026-05-07 19:57 44.91805 -64.25744 34624 ft 364 kts 239°
2026-05-07 19:58 44.89031 -64.31713 34620 ft 363 kts 239°
2026-05-07 19:58 44.86258 -64.37665 34620 ft 363 kts 239°
2026-05-07 19:59 44.83484 -64.43605 34613 ft 361 kts 239°
2026-05-07 19:59 44.80727 -64.49490 34620 ft 359 kts 239°
2026-05-07 20:00 44.77965 -64.55384 34632 ft 361 kts 239°
2026-05-07 20:00 44.75663 -64.60290 34625 ft 362 kts 239°
2026-05-07 20:01 44.72888 -64.66193 34624 ft 362 kts 239°
2026-05-07 20:01 44.69655 -64.73054 34628 ft 360 kts 239°
2026-05-07 20:02 44.67333 -64.77962 34636 ft 359 kts 239°
2026-05-07 20:02 44.64571 -64.83791 34637 ft 359 kts 239°
2026-05-07 20:03 44.61805 -64.89622 34641 ft 359 kts 239°
2026-05-07 20:03 44.59049 -64.95421 34641 ft 359 kts 239°
2026-05-07 20:04 44.56280 -65.01236 34628 ft 356 kts 239°
2026-05-07 20:04 44.53523 -65.07005 34643 ft 355 kts 239°
2026-05-07 20:05 44.50770 -65.12753 34646 ft 355 kts 239°
2026-05-07 20:05 44.48018 -65.18495 34647 ft 355 kts 239°
2026-05-07 20:06 44.45263 -65.24233 34652 ft 355 kts 239°
2026-05-07 20:06 44.42502 -65.29983 34650 ft 355 kts 238°
2026-05-07 20:07 44.39741 -65.35714 34655 ft 355 kts 238°
2026-05-07 20:07 44.36977 -65.41434 34659 ft 355 kts 238°
2026-05-07 20:08 44.34214 -65.47143 34657 ft 355 kts 238°
2026-05-07 20:08 44.31461 -65.52823 34662 ft 355 kts 238°
2026-05-07 20:09 44.28692 -65.58525 34646 ft 354 kts 238°
2026-05-07 20:10 44.24540 -65.67048 34662 ft 353 kts 238°
2026-05-07 20:10 44.21779 -65.72704 34661 ft 353 kts 238°
2026-05-07 20:11 44.19003 -65.78378 34657 ft 353 kts 238°
2026-05-07 20:11 44.16231 -65.84037 34664 ft 353 kts 238°
2026-05-07 20:12 44.13470 -65.89662 34669 ft 353 kts 238°
2026-05-07 20:12 44.10692 -65.95311 34676 ft 353 kts 238°
2026-05-07 20:13 44.07910 -66.00957 34699 ft 355 kts 238°
2026-05-07 20:13 44.05121 -66.06613 34684 ft 355 kts 238°
2026-05-07 20:14 44.02323 -66.12274 34687 ft 355 kts 238°
2026-05-07 20:14 43.99541 -66.17885 34673 ft 353 kts 238°
2026-05-07 20:15 43.96747 -66.23506 34684 ft 353 kts 238°
2026-05-07 20:15 43.93954 -66.29115 34684 ft 353 kts 238°
2026-05-07 20:16 43.91157 -66.34725 34686 ft 353 kts 238°
2026-05-07 20:16 43.88362 -66.40320 34689 ft 353 kts 238°
2026-05-07 20:17 43.85578 -66.45882 34682 ft 352 kts 238°
2026-05-07 20:17 43.82768 -66.51480 34686 ft 352 kts 238°
2026-05-07 20:18 43.79990 -66.57006 34682 ft 352 kts 238°
2026-05-07 20:18 43.77189 -66.62570 34688 ft 352 kts 238°
2026-05-07 20:19 43.74595 -66.67714 34687 ft 352 kts 238°
2026-05-07 20:19 43.71792 -66.73263 34703 ft 352 kts 238°
2026-05-07 20:20 43.68984 -66.78811 34693 ft 352 kts 237°
2026-05-07 20:20 43.66175 -66.84351 34694 ft 352 kts 237°
2026-05-07 20:21 43.63390 -66.89828 34689 ft 338 kts 237°
2026-05-07 20:21 43.60709 -66.95014 34708 ft 328 kts 237°
2026-05-07 20:22 43.58129 -67.00172 34674 ft 325 kts 243°
2026-05-07 20:22 43.56137 -67.05736 34697 ft 325 kts 240°
2026-05-07 20:23 43.53814 -67.11080 34694 ft 324 kts 243°
2026-05-07 20:23 43.51946 -67.16748 34699 ft 325 kts 247°
2026-05-07 20:24 43.50283 -67.22504 34702 ft 325 kts 247°
2026-05-07 20:24 43.48622 -67.28280 34698 ft 325 kts 247°
2026-05-07 20:25 43.46977 -67.34080 34688 ft 325 kts 247°
2026-05-07 20:25 43.45340 -67.39878 34701 ft 325 kts 247°
2026-05-07 20:26 43.43699 -67.45683 34698 ft 325 kts 247°
2026-05-07 20:26 43.42067 -67.51446 34704 ft 325 kts 247°
2026-05-07 20:27 43.40424 -67.57239 34702 ft 325 kts 247°
2026-05-07 20:27 43.38776 -67.63034 34704 ft 325 kts 247°
2026-05-07 20:28 43.37128 -67.68818 34707 ft 325 kts 247°
2026-05-07 20:28 43.35479 -67.74591 34671 ft 325 kts 247°
2026-05-07 20:29 43.33819 -67.80391 34705 ft 325 kts 247°
2026-05-07 20:29 43.32166 -67.86150 34727 ft 326 kts 247°
2026-05-07 20:30 43.30505 -67.91927 34715 ft 325 kts 247°
2026-05-07 20:30 43.28842 -67.97694 34719 ft 325 kts 247°
2026-05-07 20:31 43.27174 -68.03468 34715 ft 325 kts 247°
2026-05-07 20:31 43.25503 -68.09238 34715 ft 325 kts 247°
2026-05-07 20:32 43.23829 -68.15005 34692 ft 325 kts 247°
2026-05-07 20:32 43.22154 -68.20761 34708 ft 325 kts 247°
2026-05-07 20:33 43.20483 -68.26496 34710 ft 326 kts 246°
2026-05-07 20:33 43.18795 -68.32271 34729 ft 325 kts 246°
2026-05-07 20:34 43.17110 -68.38026 34736 ft 326 kts 246°
2026-05-07 20:34 43.15418 -68.43790 34719 ft 325 kts 246°
2026-05-07 20:35 43.13729 -68.49528 34718 ft 325 kts 246°
2026-05-07 20:35 43.12034 -68.55276 34698 ft 325 kts 246°
2026-05-07 20:36 43.10334 -68.61028 34712 ft 326 kts 246°
2026-05-07 20:36 43.08644 -68.66734 34712 ft 326 kts 246°
2026-05-07 20:37 43.06940 -68.72474 34722 ft 326 kts 246°
2026-05-07 20:37 43.05230 -68.78222 34715 ft 326 kts 246°
2026-05-07 20:38 43.03519 -68.83960 34774 ft 326 kts 246°
2026-05-07 20:38 43.02656 -68.86851 34508 ft 328 kts 246°
2026-05-07 20:38 43.01801 -68.89710 34128 ft 324 kts 246°
2026-05-07 20:38 43.00950 -68.92555 33714 ft 320 kts 246°
2026-05-07 20:39 43.00109 -68.95359 33315 ft 317 kts 246°
2026-05-07 20:39 42.99279 -68.98122 32927 ft 314 kts 246°
2026-05-07 20:39 42.98451 -69.00876 32522 ft 311 kts 246°
2026-05-07 20:39 42.97642 -69.03562 32143 ft 309 kts 246°
2026-05-07 20:40 42.96826 -69.06269 31768 ft 307 kts 246°
2026-05-07 20:40 42.96013 -69.08965 31388 ft 305 kts 245°
2026-05-07 20:40 42.95207 -69.11632 31023 ft 303 kts 245°
2026-05-07 20:40 42.94406 -69.14279 30660 ft 301 kts 245°
2026-05-07 20:41 42.93608 -69.16914 30304 ft 299 kts 245°
2026-05-07 20:41 42.92817 -69.19525 29998 ft 297 kts 245°
2026-05-07 20:41 42.92027 -69.22126 29611 ft 295 kts 245°
2026-05-07 20:41 42.91242 -69.24709 29190 ft 294 kts 245°
2026-05-07 20:42 42.90460 -69.27276 28761 ft 293 kts 245°
2026-05-07 20:42 42.89681 -69.29836 28365 ft 292 kts 245°
2026-05-07 20:42 42.88903 -69.32392 27971 ft 291 kts 245°
2026-05-07 20:42 42.88127 -69.34940 27580 ft 290 kts 245°
2026-05-07 20:43 42.87352 -69.37480 27185 ft 289 kts 245°
2026-05-07 20:43 42.86581 -69.40004 26800 ft 289 kts 245°
2026-05-07 20:43 42.85807 -69.42537 26418 ft 288 kts 246°
2026-05-07 20:43 42.85039 -69.45050 26043 ft 287 kts 246°
2026-05-07 20:44 42.84279 -69.47531 25681 ft 287 kts 246°
2026-05-07 20:44 42.83512 -69.50034 25321 ft 286 kts 246°
2026-05-07 20:44 42.82746 -69.52533 24957 ft 286 kts 246°
2026-05-07 20:44 42.81978 -69.55037 24650 ft 288 kts 246°
2026-05-07 20:45 42.81201 -69.57564 24300 ft 290 kts 246°
2026-05-07 20:45 42.80423 -69.60096 23952 ft 291 kts 246°
2026-05-07 20:45 42.79640 -69.62642 23597 ft 291 kts 246°
2026-05-07 20:45 42.78859 -69.65182 23175 ft 292 kts 246°
2026-05-07 20:46 42.78076 -69.67726 22625 ft 291 kts 246°
2026-05-07 20:46 42.77293 -69.70265 22047 ft 288 kts 246°
2026-05-07 20:46 42.76522 -69.72762 21525 ft 285 kts 246°
2026-05-07 20:46 42.75763 -69.75217 21003 ft 284 kts 246°
2026-05-07 20:47 42.74994 -69.77699 20506 ft 285 kts 246°
2026-05-07 20:47 42.74223 -69.80183 20011 ft 285 kts 246°
2026-05-07 20:47 42.73450 -69.82673 19518 ft 286 kts 246°
2026-05-07 20:47 42.72672 -69.85179 19038 ft 287 kts 246°
2026-05-07 20:48 42.71896 -69.87680 18597 ft 287 kts 246°
2026-05-07 20:48 42.71371 -69.89368 18277 ft 287 kts 246°
2026-05-07 20:48 42.70339 -69.92688 17589 ft 287 kts 246°
2026-05-07 20:48 42.69823 -69.94342 17237 ft 286 kts 246°
2026-05-07 20:49 42.69050 -69.96817 16732 ft 285 kts 246°
2026-05-07 20:49 42.68277 -69.99290 16211 ft 283 kts 247°
2026-05-07 20:49 42.67506 -70.01755 15698 ft 281 kts 247°
2026-05-07 20:49 42.66759 -70.04143 15110 ft 271 kts 247°
2026-05-07 20:50 42.66038 -70.06476 14472 ft 264 kts 249°
2026-05-07 20:50 42.65369 -70.08776 13839 ft 259 kts 248°
2026-05-07 20:50 42.64624 -70.10980 13183 ft 255 kts 245°
2026-05-07 20:50 42.63800 -70.13094 12489 ft 252 kts 244°
2026-05-07 20:51 42.62972 -70.15176 11825 ft 249 kts 245°
2026-05-07 20:51 42.62191 -70.17262 11174 ft 248 kts 247°
2026-05-07 20:51 42.61450 -70.19362 10520 ft 247 kts 248°
2026-05-07 20:51 42.60745 -70.21496 9899 ft 247 kts 251°
2026-05-07 20:52 42.60143 -70.23671 9229 ft 247 kts 254°
2026-05-07 20:52 42.59589 -70.25862 8803 ft 239 kts 252°
2026-05-07 20:52 42.58722 -70.27690 8620 ft 234 kts 227°
2026-05-07 20:52 42.57336 -70.28780 8751 ft 234 kts 210°
2026-05-07 20:53 42.55796 -70.29486 9177 ft 235 kts 205°
2026-05-07 20:53 42.54150 -70.30121 8925 ft 258 kts 203°
2026-05-07 20:53 42.52338 -70.30813 8509 ft 283 kts 202°
2026-05-07 20:53 42.50375 -70.31590 7993 ft 306 kts 202°
2026-05-07 20:54 42.48271 -70.32465 7471 ft 325 kts 202°
2026-05-07 20:54 42.46124 -70.33575 6930 ft 335 kts 212°
2026-05-07 20:54 42.44220 -70.35435 6416 ft 342 kts 227°
2026-05-07 20:54 42.42772 -70.37962 6178 ft 339 kts 242°
2026-05-07 20:55 42.41800 -70.40842 6062 ft 327 kts 251°
2026-05-07 20:55 42.41136 -70.43601 6039 ft 291 kts 256°
2026-05-07 20:55 42.40694 -70.46102 5996 ft 263 kts 261°
2026-05-07 20:55 42.40426 -70.48420 6009 ft 237 kts 264°
2026-05-07 20:56 42.40231 -70.50569 6000 ft 216 kts 265°
2026-05-07 20:56 42.40068 -70.52518 5968 ft 205 kts 265°
2026-05-07 20:56 42.39913 -70.54436 5532 ft 211 kts 266°
2026-05-07 20:56 42.39847 -70.56446 5022 ft 216 kts 272°
2026-05-07 20:57 42.39917 -70.58465 4609 ft 211 kts 275°
2026-05-07 20:57 42.40018 -70.60377 4251 ft 198 kts 276°
2026-05-07 20:57 42.40123 -70.62245 3640 ft 199 kts 276°
2026-05-07 20:57 42.40234 -70.64105 3164 ft 194 kts 276°
2026-05-07 20:58 42.40339 -70.65853 2957 ft 178 kts 276°
2026-05-07 20:58 42.40433 -70.67481 2982 ft 173 kts 274°
2026-05-07 20:58 42.40317 -70.69114 3005 ft 176 kts 262°
2026-05-07 20:58 42.40037 -70.70735 3007 ft 176 kts 259°
2026-05-07 20:59 42.39727 -70.72320 2994 ft 172 kts 258°
2026-05-07 20:59 42.39453 -70.73886 3005 ft 171 kts 260°
2026-05-07 20:59 42.39205 -70.75460 3007 ft 171 kts 261°
2026-05-07 20:59 42.38949 -70.77062 3004 ft 178 kts 260°
2026-05-07 21:00 42.38697 -70.78726 2742 ft 183 kts 261°
2026-05-07 21:00 42.38453 -70.80401 2345 ft 183 kts 261°
2026-05-07 21:00 42.38209 -70.82079 1958 ft 179 kts 261°
2026-05-07 21:00 42.38044 -70.83732 1775 ft 176 kts 265°
2026-05-07 21:01 42.37909 -70.85382 1745 ft 178 kts 265°
2026-05-07 21:01 42.37775 -70.87062 1732 ft 179 kts 265°
2026-05-07 21:01 42.37564 -70.88719 1714 ft 177 kts 259°
2026-05-07 21:01 42.37291 -70.90289 1591 ft 168 kts 259°
2026-05-07 21:02 42.37004 -70.91783 1372 ft 155 kts 257°
2026-05-07 21:02 42.36837 -70.93211 1143 ft 152 kts 265°
2026-05-07 21:02 42.36669 -70.94612 961 ft 147 kts 261°
2026-05-07 21:02 42.36471 -70.95948 686 ft 145 kts 262°
2026-05-07 21:03 42.36255 -70.97280 405 ft 143 kts 260°
2026-05-07 21:03 42.36056 -70.98497 105 ft 122 kts 259°
2026-05-07 21:03 42.35895 -70.99471 30 ft 86 kts 257°
2026-05-07 21:03 42.35815 -70.99921 36 ft 37 kts 257°
2026-05-07 21:04 42.35760 -71.00256 31 ft 35 kts 259°
2026-05-07 21:04 42.35766 -71.00536 29 ft 28 kts 278°
2026-05-07 21:04 42.35790 -71.00763 30 ft 23 kts 279°
2026-05-07 21:04 42.35816 -71.00969 28 ft 22 kts 277°
2026-05-07 21:05 42.35833 -71.01146 27 ft 15 kts 278°
2026-05-07 21:05 42.35849 -71.01286 29 ft 15 kts 278°
2026-05-07 21:05 42.35864 -71.01434 32 ft 17 kts 279°
2026-05-07 21:05 42.35892 -71.01586 34 ft 16 kts 294°
2026-05-07 21:06 42.35977 -71.01606 35 ft 15 kts 17°
2026-05-07 21:06 42.36071 -71.01565 33 ft 8 kts 358°
2026-05-07 21:06 42.36103 -71.01594 32 ft 6 kts 313°
2026-05-07 21:06 42.36118 -71.01633 31 ft 5 kts 290°
2026-05-07 21:07 42.36123 -71.01650 31 ft 0 kts 290°